Location: Favalello
(42.2939°N, 9.2706°E)
Time: 11:37:17
(UTC+00:00)

Lacrosse 5 rocket - Pass Details

Date: 06 December 2019
Orbit: 465 x 632 km, 57.0° (Epoch: 24 January)

Event Time Altitude Azimuth Distance (km) Brightness Sun altitude
Rises 18:59:26 0° 271° (W) 2,767 6.0 -34.1°
Reaches altitude 10° 19:02:19 10° 291° (WNW) 1,836 4.7 -34.7°
Enters shadow 19:03:04 13° 299° (WNW) 1,649 4.3 -34.8°
